Hourly Data Report for November 04, 2020

OTTAWA INTL A
ONTARIO
Current Station Operator: NAVCAN

45°19'00.000" N
75°40'00.000" W
114.90 m
6106001
71628
YOW

Download Data

Hourly Data (November 2020)
Hourly Data Report for November 4, 2020
TIME Temp Definition
°C
Dew Point Definition
°C
Rel Hum Definition
%
Wind Dir Definition
10's deg

Wind Spd Definition
km/h
Visibility Definition
km
Stn Press Definition
kPa
Hmdx Definition


Wind Chill Definition


Weather Definition


00:00 -2.5 -6.1 77 15 13 24.1 101.16   -7 LegendNANA
01:00 -2.1 -5.8 76 12 15 24.1 101.16   -7 Cloudy
02:00 -2.0 -5.8 75 11 14 24.1 101.13   -7 LegendNANA
03:00 -2.8 -6.0 79 9 12 24.1 101.07   -7 LegendNANA
04:00 -2.0 -5.4 78 8 18 24.1 101.00   -7 Mostly Cloudy
05:00 -1.7 -5.3 77 8 20 24.1 100.99   -7 LegendNANA
06:00 -1.8 -5.5 76 9 16 24.1 100.99   -7 LegendNANA
07:00 -2.2 -5.7 77 8 20 24.1 100.96   -8 Mainly Clear
08:00 -1.4 -5.3 75 8 20 24.1 100.98   -7 LegendNANA
09:00 -0.5 -4.6 74 7 14 24.1 100.98   -5 LegendNANA
10:00 0.4 -4.3 71 8 15 24.1 100.97     Mostly Cloudy
11:00 3.0 -2.6 67 8 11 24.1 100.93     LegendNANA
12:00 5.5 -0.4 65 7 13 24.1 100.85     LegendNANA
13:00 8.5 1.3 61 9 12 24.1 100.77     Clear
14:00 10.4 1.9 56 7 12 24.1 100.70     LegendNANA
15:00 12.9 3.8 54 11 13 24.1 100.69     LegendNANA
16:00 11.7 4.1 59 12 7 24.1 100.68     Clear
17:00 12.1 4.0 57 17 8 24.1 100.68     LegendNANA
18:00 5.8 2.1 77 5 14 24.1 100.71     LegendNANA
19:00 5.1 2.4 83 7 14 24.1 100.69     Clear
20:00 4.7 1.9 82 7 13 24.1 100.69     LegendNANA
21:00 2.9 0.8 86 6 12 24.1 100.69     LegendNANA
22:00 1.4 -0.2 89 7 10 24.1 100.70     Mainly Clear
23:00 1.4 0.1 91 6 10 24.1 100.70     LegendNANA

Notes on Data Quality.

Legend

  • E = Estimated
  • M = Missing
  • NA = Not Available*
  • [empty] = Indicates an unobserved value
Date modified: